Location: Newark
(37.8333°N, 119.5000°W)
Time: 18:19:20
(UTC+00:00)

Tiros 1 despin weight - Pass Details

Date: 31 August 2019
Orbit: 594 x 643 km, 48.2° (Epoch: 17 October)

Event Time Altitude Azimuth Distance (km) Brightness Sun altitude
Rises 05:46:57 0° 277° (W) 2,823 ? -34.2°
Reaches altitude 10° 05:49:33 10° 291° (WNW) 1,925 ? -34.6°
Enters shadow 05:51:16 19° 309° (NW) 1,450 ? -34.8°
